Location: Devargunta
(16.7631°N, 80.9077°E)
Time: 15:35:50
(UTC+00:00)

Cosmos 990 Rocket - Pass Details

Date: 19 January 2021
Orbit: 748 x 768 km, 74.0° (Epoch: 25 February)

Event Time Altitude Azimuth Distance (km) Brightness Sun altitude
Rises 13:19:43 0° 194° (SSW) 3,221 7.7 -13.1°
Reaches altitude 10° 13:22:06 10° 194° (SSW) 2,295 6.9 -13.6°
Maximum altitude 13:27:19 85° 283° (WNW) 769 4.0 -14.8°
Drops below altitude 10° 13:32:31 10° 12° (NNE) 2,288 6.2 -16.0°
Enters shadow 13:34:04 - 13° (NNE) 2,894 6.7 -16.4°
